INTELSAT 31 (IS-31)

Last updated on Wed Sep 17 2025 00:02:49 GMT+0000 (Coordinated Universal Time)

1 41581U 16035A 25258.63709619 -.00000168 00000+0 00000+0 0 9991 2 41581 0.0200 225.6745 0001811 7.0574 256.4047 1.00271085 33938
UTC large
Height (km)
Speed (km/s)
/
Latitude / Longitude
Inclination (degrees)
Orbital Period (minutes)
Azimuth
Elevation
Range (km)
Doppler Factor

Next 0 passes for location: London (51.5072 / 0.1276)

Sorry there are no passes over London.